GW2042 Weather Reports


Display with metric or nautical units.
time (UTC)temp
F
wind
direction
speed
MPH
gust
MPH
rain 1hr
in
rain 24hr
in
rain mn
in
humidity
%
barometer
mb
20260901045516 77 0 0.0 0.0 0.00 0.00 0.00 56 1016.5
20260901045025 77 0 0.0 0.0 0.00 0.00 0.00 55 1016.5
20260901044540 78 0 0.0 0.0 0.00 0.00 0.00 54 1016.5
20260901044021 78 0 0.0 0.0 0.00 0.00 0.00 54 1016.5
20260901043524 79 0 0.0 1.0 0.00 0.00 0.00 53 1016.6
20260901043048 79 0 0.0 1.0 0.00 0.00 0.00 52 1016.5
20260901042520 79 0 0.0 2.0 0.00 0.00 0.00 51 1016.6
20260901042019 79 0 0.0 2.0 0.00 0.00 0.00 51 1016.6
20260901041537 79 142 0.0 2.0 0.00 0.00 0.00 52 1016.6
20260901041020 79 142 0.0 2.0 0.00 0.00 0.00 51 1016.6
20260901040520 79 0 0.0 2.0 0.00 0.00 0.00 52 1016.5
20260901040045 79 0 0.0 2.0 0.00 0.00 0.00 51 1016.4
20260901035519 80 148 0.0 3.0 0.00 0.00 0.00 51 1016.5
20260901035019 80 130 1.0 3.0 0.00 0.00 0.00 51 1016.4
20260901034546 80 126 0.0 3.0 0.00 0.00 0.00 51 1016.5
20260901034020 80 0 0.0 2.0 0.00 0.00 0.00 50 1016.3
20260901033523 80 128 0.0 3.0 0.00 0.00 0.00 50 1016.4
20260901033100 80 0 0.0 3.0 0.00 0.00 0.00 49 1016.4
20260901032520 80 0 0.0 3.0 0.00 0.00 0.00 49 1016.4
20260901032020 81 0 0.0 2.0 0.00 0.00 0.00 48 1016.4
20260901031602 81 0 0.0 2.0 0.00 0.00 0.00 48 1016.4
20260901031024 82 140 0.0 2.0 0.00 0.00 0.00 47 1016.4
20260901030519 81 0 0.0 2.0 0.00 0.00 0.00 48 1016.3
20260901030045 81 0 0.0 2.0 0.00 0.00 0.00 48 1016.2
20260901025522 81 0 0.0 2.0 0.00 0.00 0.00 48 1016.2
20260901025023 81 0 0.0 2.0 0.00 0.00 0.00 48 1016.1
20260901024542 81 0 0.0 2.0 0.00 0.00 0.00 48 1016.1
20260901024021 82 0 0.0 2.0 0.00 0.00 0.00 48 1016.0
20260901023519 82 0 0.0 2.0 0.00 0.00 0.00 47 1016.0
20260901023043 82 0 0.0 3.0 0.00 0.00 0.00 47 1016.0
20260901022520 83 0 0.0 3.0 0.00 0.00 0.00 46 1015.9
20260901022018 83 0 0.0 3.0 0.00 0.00 0.00 46 1015.8
20260901021540 83 0 0.0 2.0 0.00 0.00 0.00 46 1015.7
20260901021017 83 0 0.0 5.0 0.00 0.00 0.00 46 1015.7
20260901020520 83 138 0.0 5.0 0.00 0.00 0.00 46 1015.6
20260901020038 83 0 0.0 5.0 0.00 0.00 0.00 46 1015.7
20260901015519 83 0 0.0 1.0 0.00 0.00 0.00 45 1015.6
20260901015019 83 0 0.0 1.0 0.00 0.00 0.00 45 1015.5
20260901014548 84 0 0.0 1.0 0.00 0.00 0.00 45 1015.5
20260901014020 84 0 0.0 2.0 0.00 0.00 0.00 44 1015.4
20260901013520 85 0 0.0 2.0 0.00 0.00 0.00 43 1015.4
20260901013047 86 0 0.0 4.0 0.00 0.00 0.00 43 1015.4
20260901012518 87 0 0.0 4.0 0.00 0.00 0.00 42 1015.3
20260901012020 88 0 1.0 4.0 0.00 0.00 0.00 40 1015.3
20260901011541 88 138 1.0 6.0 0.00 0.00 0.00 39 1015.2
20260901011020 89 135 1.0 6.0 0.00 0.00 0.00 39 1015.2
20260901010519 90 147 2.0 7.0 0.00 0.00 0.00 38 1015.3
20260901010040 90 136 2.0 8.0 0.00 0.00 0.00 38 1015.2
20260901005518 90 140 2.0 10.0 0.00 0.00 0.00 37 1015.3
20260901005017 91 113 2.0 10.0 0.00 0.00 0.00 37 1015.2
20260901004542 91 123 3.0 10.0 0.00 0.00 0.00 36 1015.1
20260901004018 92 128 4.0 10.0 0.00 0.00 0.00 35 1015.0
20260901003519 92 114 4.0 10.0 0.00 0.00 0.00 35 1015.0
20260901003041 92 140 4.0 10.0 0.00 0.00 0.00 35 1014.9
20260901002519 93 123 3.0 12.0 0.00 0.00 0.00 34 1015.0
20260901002028 93 134 3.0 12.0 0.00 0.00 0.00 34 1015.1
20260901001553 93 162 3.0 11.0 0.00 0.00 0.00 34 1015.0
20260901001019 94 148 4.0 9.0 0.00 0.00 0.00 34 1015.1
20260901000520 94 131 4.0 13.0 0.00 0.00 0.00 34 1015.0
20260901000039 95 128 5.0 13.0 0.00 0.00 0.00 34 1015.0
20260831235523 95 136 7.0 13.0 0.00 0.00 0.00 33 1014.9
20260831235019 96 126 4.0 9.0 0.00 0.00 0.00 32 1014.7
20260831234540 96 150 3.0 8.0 0.00 0.00 0.00 31 1014.8
20260831234017 97 144 4.0 9.0 0.00 0.00 0.00 31 1014.9
20260831233520 97 139 4.0 11.0 0.00 0.00 0.00 31 1014.8
20260831233040 97 154 4.0 11.0 0.00 0.00 0.00 30 1014.9
20260831232520 98 121 4.0 8.0 0.00 0.00 0.00 30 1015.0
20260831232020 98 158 3.0 8.0 0.00 0.00 0.00 30 1014.9
20260831231544 98 157 2.0 12.0 0.00 0.00 0.00 30 1014.9
20260831231023 98 154 3.0 12.0 0.00 0.00 0.00 30 1014.9
20260831230520 99 146 2.0 10.0 0.00 0.00 0.00 30 1014.9
20260831230037 99 134 4.0 10.0 0.00 0.00 0.00 30 1015.1
20260831225521 99 172 1.0 7.0 0.00 0.00 0.00 29 1015.0
20260831225022 100 155 2.0 9.0 0.00 0.00 0.00 29 1015.1
20260831224542 99 160 2.0 13.0 0.00 0.00 0.00 29 1015.0
20260831224021 99 147 5.0 13.0 0.00 0.00 0.00 29 1015.1
20260831223520 100 153 4.0 10.0 0.00 0.00 0.00 30 1015.1
20260831223040 100 136 3.0 10.0 0.00 0.00 0.00 29 1015.1
20260831222518 100 140 3.0 7.0 0.00 0.00 0.00 30 1015.1
20260831222023 100 140 2.0 9.0 0.00 0.00 0.00 29 1015.1
20260831221551 99 184 3.0 9.0 0.00 0.00 0.00 30 1015.1
20260831221021 97 158 3.0 8.0 0.00 0.00 0.00 31 1015.2
20260831220520 95 96 2.0 9.0 0.00 0.00 0.00 32 1015.2
20260831220037 95 146 4.0 9.0 0.00 0.00 0.00 32 1015.3
20260831215519 95 159 3.0 9.0 0.00 0.00 0.00 32 1015.3
20260831215020 96 140 2.0 7.0 0.00 0.00 0.00 31 1015.4
20260831214552 95 144 2.0 8.0 0.00 0.00 0.00 32 1015.4
20260831214019 96 0 3.0 8.0 0.00 0.00 0.00 31 1015.4
20260831213523 99 168 2.0 15.0 0.00 0.00 0.00 29 1015.6
20260831213050 100 153 3.0 15.0 0.00 0.00 0.00 28 1015.5
20260831212523 101 149 7.0 15.0 0.00 0.00 0.00 29 1015.6
20260831212017 102 140 4.0 11.0 0.00 0.00 0.00 28 1015.6
20260831211539 101 124 4.0 11.0 0.00 0.00 0.00 28 1015.7
20260831211021 99 168 4.0 12.0 0.00 0.00 0.00 28 1015.8
20260831210523 102 119 3.0 12.0 0.00 0.00 0.00 27 1015.7
20260831210041 102 132 3.0 13.0 0.00 0.00 0.00 28 1015.9
20260831205520 101 171 5.0 13.0 0.00 0.00 0.00 27 1016.0
20260831205020 102 182 5.0 12.0 0.00 0.00 0.00 27 1016.0
20260831204547 102 150 4.0 10.0 0.00 0.00 0.00 27 1016.0
20260831204020 100 201 3.0 10.0 0.00 0.00 0.00 27 1016.1
20260831203517 101 67 3.0 11.0 0.00 0.00 0.00 26 1016.2
20260831203050 100 192 3.0 14.0 0.00 0.00 0.00 26 1016.2
20260831202519 102 143 4.0 14.0 0.00 0.00 0.00 26 1016.4
20260831202018 102 145 2.0 9.0 0.00 0.00 0.00 26 1016.3
20260831201536 101 142 5.0 11.0 0.00 0.00 0.00 27 1016.4
20260831201021 100 106 3.0 12.0 0.00 0.00 0.00 27 1016.4
20260831200520 102 115 2.0 12.0 0.00 0.00 0.00 26 1016.4
20260831200042 102 114 3.0 10.0 0.00 0.00 0.00 27 1016.5
20260831195521 101 140 3.0 10.0 0.00 0.00 0.00 28 1016.6
20260831195018 98 130 4.0 10.0 0.00 0.00 0.00 30 1016.8
20260831194540 100 193 3.0 12.0 0.00 0.00 0.00 28 1016.7
20260831194024 101 131 6.0 12.0 0.00 0.00 0.00 28 1016.8
20260831193520 100 135 5.0 10.0 0.00 0.00 0.00 29 1016.8
20260831193035 100 165 3.0 10.0 0.00 0.00 0.00 29 1017.0
20260831192521 96 153 4.0 10.0 0.00 0.00 0.00 32 1017.1
20260831192018 97 178 2.0 14.0 0.00 0.00 0.00 31 1017.1
20260831191550 100 142 3.0 14.0 0.00 0.00 0.00 28 1017.1
20260831191020 99 123 4.0 10.0 0.00 0.00 0.00 29 1017.0
20260831190520 98 175 4.0 11.0 0.00 0.00 0.00 29 1017.0
20260831190042 100 161 3.0 11.0 0.00 0.00 0.00 28 1017.2
20260831185520 100 161 5.0 11.0 0.00 0.00 0.00 29 1017.2
20260831185016 99 148 2.0 10.0 0.00 0.00 0.00 29 1017.3
20260831184537 100 128 2.0 10.0 0.00 0.00 0.00 30 1017.3
20260831184023 99 163 4.0 9.0 0.00 0.00 0.00 31 1017.4
20260831183525 99 192 4.0 11.0 0.00 0.00 0.00 31 1017.6
20260831183041 98 0 3.0 11.0 0.00 0.00 0.00 31 1017.5
20260831182520 98 152 4.0 11.0 0.00 0.00 0.00 32 1017.7
20260831182018 100 177 3.0 9.0 0.00 0.00 0.00 31 1017.8
20260831181549 99 157 2.0 11.0 0.00 0.00 0.00 32 1017.7
20260831181017 99 160 4.0 11.0 0.00 0.00 0.00 32 1017.9
20260831180519 99 130 4.0 12.0 0.00 0.00 0.00 32 1017.9
20260831180042 99 136 5.0 12.0 0.00 0.00 0.00 32 1018.0
20260831175518 98 143 4.0 9.0 0.00 0.00 0.00 32 1018.0
20260831175024 98 157 2.0 15.0 0.00 0.00 0.00 33 1018.1
20260831174537 98 217 5.0 15.0 0.00 0.00 0.00 32 1018.2
20260831174023 97 194 3.0 10.0 0.00 0.00 0.00 32 1018.3
20260831173520 97 186 3.0 13.0 0.00 0.00 0.00 35 1018.4
20260831173046 97 147 4.0 13.0 0.00 0.00 0.00 35 1018.5
20260831172519 96 219 2.0 10.0 0.00 0.00 0.00 36 1018.5
20260831172023 97 147 4.0 11.0 0.00 0.00 0.00 35 1018.6
20260831171537 96 146 3.0 11.0 0.00 0.00 0.00 36 1018.7
20260831171016 95 217 5.0 11.0 0.00 0.00 0.00 39 1018.7
20260831170521 95 221 4.0 12.0 0.00 0.00 0.00 37 1018.8
20260831170037 95 126 4.0 12.0 0.00 0.00 0.00 37 1018.9
20260831165519 95 109 3.0 11.0 0.00 0.00 0.00 38 1018.8
20260831165020 95 148 4.0 11.0 0.00 0.00 0.00 38 1018.8
20260831164545 95 166 4.0 10.0 0.00 0.00 0.00 38 1018.8
20260831164020 95 157 4.0 10.0 0.00 0.00 0.00 38 1018.8
20260831163520 94 154 4.0 10.0 0.00 0.00 0.00 38 1018.8
20260831163040 94 148 3.0 9.0 0.00 0.00 0.00 39 1018.8
20260831162518 94 194 2.0 8.0 0.00 0.00 0.00 41 1018.8
20260831162019 93 140 3.0 9.0 0.00 0.00 0.00 40 1018.7
20260831161542 92 166 3.0 9.0 0.00 0.00 0.00 42 1018.9
20260831161020 92 111 3.0 10.0 0.00 0.00 0.00 41 1018.8
20260831160525 92 159 4.0 10.0 0.00 0.00 0.00 43 1018.8
20260831160037 91 157 3.0 8.0 0.00 0.00 0.00 46 1018.8
20260831155520 90 200 3.0 8.0 0.00 0.00 0.00 46 1018.8
20260831155018 90 180 3.0 8.0 0.00 0.00 0.00 49 1018.8
20260831154604 90 224 2.0 8.0 0.00 0.00 0.00 47 1018.8
20260831154019 90 153 3.0 8.0 0.00 0.00 0.00 47 1018.8
20260831153522 89 163 2.0 8.0 0.00 0.00 0.00 48 1018.7
20260831153043 89 175 3.0 10.0 0.00 0.00 0.00 50 1018.6
20260831152521 87 180 3.0 11.0 0.00 0.00 0.00 52 1018.6
20260831152024 87 194 3.0 11.0 0.00 0.00 0.00 53 1018.6
20260831151541 86 219 4.0 12.0 0.00 0.00 0.00 54 1018.6
20260831151020 86 236 3.0 12.0 0.00 0.00 0.00 55 1018.5
20260831150522 87 192 2.0 9.0 0.00 0.00 0.00 55 1018.4
20260831150036 85 222 3.0 10.0 0.00 0.00 0.00 57 1018.5
20260831145517 85 192 3.0 10.0 0.00 0.00 0.00 58 1018.5
20260831145022 84 0 3.0 11.0 0.00 0.00 0.00 58 1018.5
20260831144542 84 213 5.0 11.0 0.00 0.00 0.00 60 1018.5
20260831144019 83 212 3.0 10.0 0.00 0.00 0.00 61 1018.4
20260831143517 83 200 2.0 10.0 0.00 0.00 0.00 63 1018.4
20260831143037 83 213 4.0 13.0 0.00 0.00 0.00 63 1018.4
20260831142516 82 229 5.0 13.0 0.00 0.00 0.00 63 1018.4
20260831142024 82 182 3.0 9.0 0.00 0.00 0.00 65 1018.4
20260831141539 82 160 3.0 7.0 0.00 0.00 0.00 66 1018.4
20260831141018 81 208 3.0 8.0 0.00 0.00 0.00 68 1018.3
20260831140521 80 178 2.0 9.0 0.00 0.00 0.00 69 1018.3
20260831140037 80 163 4.0 9.0 0.00 0.00 0.00 70 1018.3
20260831135518 79 196 2.0 8.0 0.00 0.00 0.00 71 1018.3
20260831135018 79 202 3.0 8.0 0.00 0.00 0.00 72 1018.2
20260831134544 78 149 2.0 7.0 0.00 0.00 0.00 73 1018.3
20260831134019 78 177 1.0 7.0 0.00 0.00 0.00 74 1018.1
20260831133519 77 158 2.0 5.0 0.00 0.00 0.00 75 1018.1
20260831133042 77 140 2.0 6.0 0.00 0.00 0.00 76 1018.1
20260831132519 76 165 2.0 6.0 0.00 0.00 0.00 77 1018.1
20260831132025 76 161 1.0 6.0 0.00 0.00 0.00 78 1018.0
20260831131538 75 155 1.0 6.0 0.00 0.00 0.00 79 1017.9
20260831131018 75 148 2.0 6.0 0.00 0.00 0.00 79 1017.9
20260831130518 74 156 2.0 6.0 0.00 0.00 0.00 80 1017.8
20260831130038 74 161 1.0 5.0 0.00 0.00 0.00 80 1017.7
20260831125520 73 146 2.0 5.0 0.00 0.00 0.00 81 1017.6
20260831125018 73 155 1.0 5.0 0.00 0.00 0.00 81 1017.5
20260831124551 73 144 1.0 5.0 0.00 0.00 0.00 82 1017.4
20260831124022 72 159 1.0 4.0 0.00 0.00 0.00 82 1017.5
20260831123518 72 153 1.0 4.0 0.00 0.00 0.00 82 1017.5
20260831123038 72 154 1.0 4.0 0.00 0.00 0.00 81 1017.4
20260831122518 72 163 0.0 4.0 0.00 0.00 0.00 81 1017.3
20260831122021 72 151 0.0 3.0 0.00 0.00 0.00 81 1017.3
20260831121536 72 0 1.0 3.0 0.00 0.00 0.00 81 1017.1
20260831121023 72 151 0.0 4.0 0.00 0.00 0.00 81 1017.0
20260831120521 73 175 1.0 4.0 0.00 0.00 0.00 80 1017.0
20260831120046 73 0 1.0 4.0 0.00 0.00 0.00 80 1016.9
20260831115519 73 147 1.0 5.0 0.00 0.00 0.00 80 1017.0
20260831115021 73 145 1.0 5.0 0.00 0.00 0.00 80 1017.0
20260831114548 73 155 2.0 5.0 0.00 0.00 0.00 80 1016.9
20260831114016 73 136 2.0 5.0 0.00 0.00 0.00 79 1016.8
20260831113518 73 146 2.0 5.0 0.00 0.00 0.00 80 1016.8
20260831113039 73 161 2.0 5.0 0.00 0.00 0.00 80 1016.7
20260831112518 72 124 1.0 5.0 0.00 0.00 0.00 80 1016.6
20260831112020 72 125 1.0 4.0 0.00 0.00 0.00 80 1016.4
20260831111537 72 149 1.0 4.0 0.00 0.00 0.00 80 1016.5
20260831111019 72 160 1.0 4.0 0.00 0.00 0.00 81 1016.4
20260831110518 72 160 0.0 2.0 0.00 0.00 0.00 80 1016.4
20260831110041 72 160 0.0 2.0 0.00 0.00 0.00 79 1016.3
20260831105522 72 0 0.0 2.0 0.00 0.00 0.00 79 1016.4
20260831105023 72 160 0.0 2.0 0.00 0.00 0.00 78 1016.3
20260831104549 72 160 0.0 4.0 0.00 0.00 0.00 79 1016.4
20260831104016 72 160 1.0 4.0 0.00 0.00 0.00 79 1016.5
20260831103516 72 0 0.0 2.0 0.00 0.00 0.00 79 1016.5
20260831103038 73 160 0.0 2.0 0.00 0.00 0.00 78 1016.5
20260831102519 73 160 0.0 1.0 0.00 0.00 0.00 77 1016.4
20260831102019 74 0 0.0 0.0 0.00 0.00 0.00 77 1016.5
20260831101537 74 0 0.0 0.0 0.00 0.00 0.00 77 1016.4
20260831101018 74 0 0.0 0.0 0.00 0.00 0.00 77 1016.4
20260831100517 74 0 0.0 0.0 0.00 0.00 0.00 77 1016.4
20260831100042 74 0 0.0 0.0 0.00 0.00 0.00 76 1016.4
20260831095517 74 0 0.0 0.0 0.00 0.00 0.00 76 1016.4
20260831095019 75 0 0.0 1.0 0.00 0.00 0.00 75 1016.4
20260831094535 76 0 0.0 1.0 0.00 0.00 0.00 74 1016.4
20260831094016 76 0 0.0 0.0 0.00 0.00 0.00 74 1016.4
20260831093519 76 0 0.0 0.0 0.00 0.00 0.00 74 1016.4
20260831093042 76 0 0.0 0.0 0.00 0.00 0.00 73 1016.4
20260831092518 76 0 0.0 1.0 0.00 0.00 0.00 73 1016.3
20260831092020 77 0 0.0 1.0 0.00 0.00 0.00 73 1016.3
20260831091535 77 160 0.0 1.0 0.00 0.00 0.00 72 1016.2
20260831091023 77 0 0.0 1.0 0.00 0.00 0.00 72 1016.3
20260831090517 77 0 0.0 1.0 0.00 0.00 0.00 71 1016.2
20260831090038 77 0 0.0 1.0 0.00 0.00 0.00 71 1016.2
20260831085519 77 0 0.0 3.0 0.00 0.00 0.00 71 1016.3
20260831085019 78 0 0.0 3.0 0.00 0.00 0.00 70 1016.2
20260831084537 78 202 0.0 3.0 0.00 0.00 0.00 70 1016.3
20260831084017 78 159 0.0 4.0 0.00 0.00 0.00 69 1016.3
20260831083519 78 159 0.0 4.0 0.00 0.00 0.00 69 1016.2
20260831083046 78 0 0.0 2.0 0.00 0.00 0.00 69 1016.3
20260831082516 78 175 0.0 2.0 0.00 0.00 0.00 68 1016.2
20260831082017 79 175 0.0 5.0 0.00 0.00 0.00 68 1016.3
20260831081537 79 153 1.0 5.0 0.00 0.00 0.00 67 1016.3
20260831081022 79 136 1.0 5.0 0.00 0.00 0.00 67 1016.3
20260831080519 79 161 1.0 5.0 0.00 0.00 0.00 66 1016.3
20260831080041 79 145 1.0 5.0 0.00 0.00 0.00 66 1016.3
20260831075520 80 168 2.0 7.0 0.00 0.00 0.00 65 1016.3
20260831075019 80 155 1.0 7.0 0.00 0.00 0.00 65 1016.3
20260831074541 80 142 2.0 7.0 0.00 0.00 0.00 64 1016.3
20260831074027 80 148 2.0 6.0 0.00 0.00 0.00 64 1016.4
20260831073518 80 144 2.0 5.0 0.00 0.00 0.00 63 1016.4
20260831073053 80 148 2.0 9.0 0.00 0.00 0.00 63 1016.4
20260831072524 80 180 2.0 9.0 0.00 0.00 0.00 63 1016.4
20260831072020 80 153 2.0 7.0 0.00 0.00 0.00 63 1016.4
20260831071540 81 194 2.0 8.0 0.00 0.00 0.00 63 1016.3
20260831071018 81 158 1.0 9.0 0.00 0.00 0.00 62 1016.3
20260831070521 81 155 2.0 9.0 0.00 0.00 0.00 62 1016.3
20260831070049 81 161 3.0 9.0 0.00 0.00 0.00 61 1016.4
20260831065520 81 153 2.0 7.0 0.00 0.00 0.00 61 1016.3
20260831065021 81 149 2.0 7.0 0.00 0.00 0.00 61 1016.3
20260831064545 81 183 3.0 7.0 0.00 0.00 0.00 60 1016.2
20260831064026 81 157 3.0 8.0 0.00 0.00 0.00 60 1016.2
20260831063518 81 152 2.0 8.0 0.00 0.00 0.00 59 1016.3
20260831063043 81 162 2.0 8.0 0.00 0.00 0.00 58 1016.3
20260831062521 81 140 3.0 8.0 0.00 0.00 0.00 57 1016.3
20260831062022 81 148 4.0 9.0 0.00 0.00 0.00 57 1016.3
20260831061549 81 157 3.0 9.0 0.00 0.00 0.00 56 1016.3
20260831061018 81 166 3.0 8.0 0.00 0.00 0.00 56 1016.3
20260831060521 81 146 3.0 8.0 0.00 0.00 0.00 55 1016.3
20260831060045 81 160 3.0 8.0 0.00 0.00 0.00 55 1016.4
20260831055518 80 163 3.0 8.0 0.00 0.00 0.00 56 1016.4
20260831055023 79 157 2.0 5.0 0.00 0.00 0.00 56 1016.4
20260831054541 79 161 1.0 4.0 0.00 0.00 0.00 56 1016.3
20260831054023 79 183 1.0 4.0 0.00 0.00 0.00 57 1016.3
20260831053524 78 134 0.0 4.0 0.00 0.00 0.00 56 1016.3
20260831053045 78 153 0.0 2.0 0.00 0.00 0.00 56 1016.3
20260831052520 79 154 0.0 2.0 0.00 0.00 0.00 56 1016.3
20260831052020 79 0 0.0 2.0 0.00 0.00 0.00 56 1016.2
20260831051542 79 148 0.0 2.0 0.00 0.00 0.00 56 1016.3
20260831051021 79 0 0.0 3.0 0.00 0.00 0.00 55 1016.3
20260831050520 79 0 0.0 3.0 0.00 0.00 0.00 55 1016.3
20260831050058 79 165 0.0 2.0 0.00 0.00 0.00 55 1016.3